Погода Алматы

Поиск расширенной информации на нашем сайте:

Полезная информация:

Новости сайта



02.01.2020
Опубликован Долгосрочный прогноз погоды по городам России и ближнего зарубежья на январь 2020 года.
Карты: Прогноз на январь и февраль 2020 года, Сравнение прогнозируемой аномалии приземной температуры воздуха на январь 2020 года по разным моделям.




Погода Алматы - сегодня

Время (UTC), дата Ветер
(°,м/с) 
Видим.   Явления Облачность Т
(°С)
Тd
(°С)
f(%) Тe
(°С)
Pmin
(гПа)
dP
(гПа)
Po
(мм)
O2
(г/м3)
Тmin Tmax R s Состояние
почвы
15 19.10.20 тихо ()   н/о    ясно 
+11 -0.5 45 +11  1024.1  -1.4  695  269    +21.5       
18 19.10.20 тихо ()   н/о    ясно 
+10 -1.3 45 +10  1021.8  -2.4  693  269    +21.5       
21 19.10.20 тихо ()   н/о    ясно 
+6.1 -2 56 +6  1021.3  -1.7  691  273           
00 20.10.20 тихо () {03}  н/о    ясно 
+5.8 -2.7 54 +6  1019.7  -1.6  690  272    +10.1       
03 20.10.20 210 (ЮЗ) 20000 м    ясно 
+10.7 -1.5 43 +12  1017.4  -0.4  690  268  +5.3         
06 20.10.20 тихо ()   20000 м    ясно 
+18.4 -2 25 +18  1013.4  -1.2  689  260  +5.3         
09 20.10.20 тихо ()   4000 м  дым  ясно 
+21.6 -1.2 22 +22  1010.4  -1.7  688  257           
12 20.10.20 тихо ()   10 км    ясно 
+17.6 -0.9 28 +18  1011.8  688  260           
15 20.10.20 тихо ()   н/о    ясно 
+11.8 -0.8 42 +12  1014.4  0.5  688  266    +22.6       
18 20.10.20 тихо ()   н/о    ясно 
+11.4 -2.8 37 +11  1015.6  0.9  689  267    +22.6       
21 20.10.20 тихо ()   н/о    ясно 
+10 -3.7 38 +10  1016.6  0.5  689  268           
00 21.10.20 130 (ЮВ) 1{03}  н/о    ясно 
+12.5 -5.2 29 +14  1015.8  0.1  689  266           
03 21.10.20 тихо ()   20000 м    ясно 
+17.7 -5.2 21 +18  1015  0.9  690  261           
06 21.10.20 060 (СВ) 10 км    ясно 
+23.2 -3.1 17 +23  1013.3  0.1  690  256  +9.3         
09 21.10.20 тихо ()   4000 м    ясно 
+24.2 +0.4 21 +24  1013.2  0.3  690  255           
12 21.10.20 тихо ()   20000 м    ясно 
+18.8 -2 24 +19  1015.9  0.8  691  260           
15 21.10.20 тихо ()   н/о    ясно 
+14.5 -3 30 +15  1018.4  0.8  691  265    +25       
18 21.10.20 тихо ()   н/о    ясно 
+13.7 -4.2 29 +14  1017.9  -0.6  691  265    +25       
21 21.10.20 тихо ()   н/о    ясно 
+13.9 -4.6 27 +14  1015.9  -1.8  690  265           
00 22.10.20 010 (С) 1{05}  н/о    ясно 
+13.5 -5.4 26 +15  1016.4  0.3  690  265    +0.5       
03 22.10.20 тихо ()   10 км    ясно 
+15.1 -3.4 28 +15  1017.8  1.8  691  264  +8.8         
06 22.10.20 тихо ()   10 км    10/0 средняя 
[Ac As]
+19 -1.2 25 +19  1016.8  0.3  691  260  +8.8         
09 22.10.20 220 (ЮЗ) 4000 м  дым  10/0 средняя 
[As trans]
+13.9 -0.8 36 +14  1020.3  1.7  693  266           
12 22.10.20 030 (СВ) 20000 м    6/0 средняя 
[Ac trans]
+12 -0.2 43 +13  1021.3  0.3  693  267           
15 22.10.20 тихо ()   н/о    3/0 средняя 
[Ac trans]
+10.1 +0.4 51 +10  1022  693  269    +19.5       
Время (UTC), дата Ветер
(°,м/с) 
Видим.   Явления Облачность Т
(°С)
Тd
(°С)
f(%) Тe
(°С)
Pmin
(гПа)
dP
(гПа)
Po
(мм)
O2
(г/м3)
Тmin Tmax R s Состояние
почвы

Для получения пояснительной информации подведите курсор к названию столбца.

ПОГОДА Алматы - архив

Всё, что Вы хотите узнать о погоде Алматы - удобно и подробно!

Выберите нужную дату (начиная с 1 января 2019* года) и нажмите кнопку "Найти".
Будут отображены архивные сводки погоды по пункту Алматы, начиная с указанной даты.


Отображать данные в формате CSV (для использования в таблицах Excel)


Внимание! Наш архив погоды предназначен исключительно для личного некоммерческого использования в познавательных целях. Если Вам необходимы официальные справки о состоянии погоды (для производственных, юридических, коммерческих и т.п. целей), обращайтесь в органы Росгидромета.

*Примечание: данная дата относится к архиву по метеостанциям СССР (Россия, СНГ, Балтия).
Архив по метеостанциям Зарубежной Европы и Азии (кроме Китая) хранится 10 дней, по другим регионам земного шара (Китай, Африка, Америка, Австралия, Океания) - 1 день.

Алматы - район местоположения метеостанции


Название, широта, долгота, высота метеостанции:
Алматы (город) 43.2°ш. 76.9°д. 851 м над ур. моря [Казахстан]

Дополнительная информация

В oтличие oт бoльшинства пoгoдных сайтoв мы публикуем пoдрoбную метеoинфoрмацию в детальнoм прoфессиoнальнoм фoрмате.

Характеристики температуры и влажнoсти вoздуха измеряются на высoте 2 м в тени вдали oт зданий и деревьев.
Скoрoсть ветра измеряется на высoте 10 м (на урoвне рoста челoвека скoрoсть ветра ниже в 1.5-2 раза). Если метеoстанция нахoдится в гoрoде или в лесу, тo скoрoсть ветра занижена на 2-4 м/с пo сравнению с oткрытым местoм. Скoрoсть ветра над акватoриями крупных рек и oзёр, а также на вершинах хoлмoв на 2-5 м/с выше, чем в oбычных услoвиях.
Атмoсфернoе давление в разных тoчках местнoсти мoжет значительнo oтличаться oт давления на метеoстанции, в зависимoсти oт услoвий рельефа (при пoдъёме на 10 м давление пoнижается примернo на 1 мм рт.ст.).